Location: Unspecified
(55.7024°N, 37.6611°E)
Time: 22:48:19
(UTC+03:00)

SR - All Passes

Search period start: 17 June 2025 00:00
Search period end: 27 June 2025 00:00
Orbit: 570 x 855 km, 66.7° (Epoch: 17 June)

Date Brightness Start Highest point End Pass type
(mag) Time Alt. Az. Time Alt. Az. Time Alt. Az.
17 Jun - 01:21:57 10° NW 01:27:17 73° NE 01:32:07 10° SE visible
17 Jun - 03:04:17 10° WNW 03:08:34 27° WSW 03:12:34 10° S daylight
17 Jun - 17:36:46 10° S 17:42:08 41° ESE 17:47:20 10° NE daylight
17 Jun - 19:18:09 10° WSW 19:23:51 61° NW 19:29:16 10° NE daylight
17 Jun - 21:01:40 10° WNW 21:06:34 29° NNW 21:11:13 10° NE daylight
17 Jun - 22:45:13 10° NW 22:49:50 26° N 22:54:09 10° ENE visible
18 Jun - 00:27:34 10° NW 00:32:45 48° NNE 00:37:30 10° ESE visible
18 Jun - 02:09:35 10° NW 02:14:35 49° WSW 02:19:10 10° SSE visible
18 Jun - 16:43:38 10° SSE 16:48:09 24° ESE 16:52:34 10° ENE daylight
18 Jun - 18:23:37 10° SW 18:29:24 88° SE 18:34:56 10° NE daylight
18 Jun - 20:06:31 10° W 20:11:45 36° NNW 20:16:44 10° NE daylight
18 Jun - 21:50:19 10° WNW 21:54:53 25° N 21:59:13 10° NE daylight
18 Jun - 23:33:07 10° NW 23:38:03 35° NNE 23:42:37 10° E visible
19 Jun - 01:15:06 10° NW 01:20:23 85° SW 01:25:11 10° SE visible
19 Jun - 02:57:49 10° WNW 03:01:22 19° WSW 03:04:42 10° SSW daylight
19 Jun - 15:51:42 10° SE 15:54:21 13° ESE 15:56:59 10° ENE daylight
19 Jun - 17:29:30 10° SSW 17:35:07 55° SE 17:40:31 10° NE daylight
19 Jun - 19:11:31 10° WSW 19:17:04 49° NW 19:22:21 10° NE daylight
19 Jun - 20:55:14 10° WNW 20:59:58 27° N 21:04:27 10° NE daylight
19 Jun - 22:38:33 10° NW 22:43:13 28° NNE 22:47:36 10° ENE visible
20 Jun - 00:20:42 10° NW 00:25:57 60° NE 00:30:46 10° ESE visible
20 Jun - 02:02:51 10° NW 02:07:29 35° WSW 02:11:46 10° S visible
20 Jun - 16:35:58 10° S 16:41:01 33° ESE 16:45:56 10° NE daylight
20 Jun - 18:16:46 10° SW 18:22:32 73° NW 18:28:00 10° NE daylight
20 Jun - 20:00:05 10° W 20:05:06 32° NNW 20:09:52 10° NE daylight
20 Jun - 21:43:46 10° NW 21:48:19 26° N 21:52:35 10° ENE daylight
20 Jun - 23:26:18 10° NW 23:31:21 41° NNE 23:36:00 10° E visible
21 Jun - 01:08:15 10° NW 01:13:25 63° SW 01:18:05 10° SSE visible
21 Jun - 02:51:46 10° WNW 02:54:04 13° WSW 02:56:17 10° SW daylight
21 Jun - 15:43:13 10° SSE 15:47:07 19° ESE 15:50:56 10° ENE daylight
21 Jun - 17:22:25 10° SSW 17:28:09 73° SE 17:33:39 10° NE daylight
21 Jun - 19:04:58 10° W 19:10:20 41° NNW 19:15:25 10° NE daylight
21 Jun - 20:48:47 10° WNW 20:53:22 26° N 20:57:43 10° NE daylight
21 Jun - 22:31:48 10° NW 22:36:35 31° NNE 22:41:02 10° E visible
22 Jun - 00:13:50 10° NW 00:19:06 78° NE 00:23:54 10° SE visible
22 Jun - 01:56:14 10° WNW 02:00:19 25° WSW 02:04:08 10° SSW visible
22 Jun - 16:28:32 10° S 16:33:57 44° ESE 16:39:10 10° NE daylight
22 Jun - 18:10:04 10° WSW 18:15:42 58° NW 18:21:04 10° NE daylight
22 Jun - 19:53:39 10° WNW 19:58:28 28° NNW 20:03:02 10° NE daylight
22 Jun - 21:37:08 10° NW 21:41:42 27° N 21:46:00 10° ENE daylight
22 Jun - 23:19:26 10° NW 23:24:36 50° NE 23:29:19 10° ESE visible
23 Jun - 01:01:28 10° NW 01:06:22 45° WSW 01:10:50 10° SSE visible
23 Jun - 15:35:18 10° SSE 15:39:55 26° ESE 15:44:27 10° ENE daylight
23 Jun - 17:15:28 10° SW 17:21:14 87° NW 17:26:44 10° NE daylight
23 Jun - 18:58:29 10° W 19:03:38 35° NNW 19:08:31 10° NE daylight
23 Jun - 20:42:17 10° NW 20:46:47 25° N 20:51:02 10° NE daylight
23 Jun - 22:25:00 10° NW 22:29:55 36° NNE 22:34:27 10° E visible
24 Jun - 00:06:58 10° NW 00:12:10 80° SW 00:16:54 10° SE visible
24 Jun - 01:49:49 10° WNW 01:53:04 17° WSW 01:56:09 10° SSW visible
24 Jun - 14:43:07 10° SE 14:46:06 15° ESE 14:49:02 10° ENE daylight
24 Jun - 16:21:18 10° SSW 16:26:56 59° SE 16:32:19 10° NE daylight
24 Jun - 18:03:27 10° WSW 18:08:55 47° NNW 18:14:07 10° NE daylight
24 Jun - 19:47:13 10° WNW 19:51:51 26° N 19:56:15 10° NE daylight
24 Jun - 21:30:27 10° NW 21:35:06 29° NNE 21:39:26 10° ENE daylight
24 Jun - 23:12:34 10° NW 23:17:47 63° NE 23:22:31 10° ESE visible
25 Jun - 00:54:45 10° NW 00:59:14 32° WSW 01:03:23 10° S visible
25 Jun - 15:27:39 10° S 15:32:48 35° ESE 15:37:46 10° NE daylight
25 Jun - 17:08:39 10° SW 17:14:22 69° NW 17:19:47 10° NE daylight
25 Jun - 18:52:02 10° W 18:56:58 31° NNW 19:01:39 10° NE daylight
25 Jun - 20:35:42 10° NW 20:40:11 25° N 20:44:25 10° ENE daylight
25 Jun - 22:18:09 10° NW 22:23:12 42° NNE 22:27:48 10° ESE visible
26 Jun - 00:00:08 10° NW 00:05:11 58° SW 00:09:47 10° SSE visible
26 Jun - 01:44:01 10° W 01:45:45 12° WSW 01:47:27 10° SW visible
26 Jun - 14:34:48 10° SSE 14:38:51 20° ESE 14:42:50 10° ENE daylight
26 Jun - 16:14:14 10° SW 16:19:58 78° SE 16:25:26 10° NE daylight
26 Jun - 17:56:54 10° W 18:02:11 39° NNW 18:07:11 10° NE daylight
26 Jun - 19:40:44 10° WNW 19:45:15 25° N 19:49:31 10° NE daylight
26 Jun - 21:23:40 10° NW 21:28:26 32° NNE 21:32:52 10° E daylight
26 Jun - 23:05:41 10° NW 23:10:53 83° NE 23:15:38 10° SE visible
